Location: Casa Rossa
(45.2389°N, 12.2056°E)
Time: 04:16:20
(UTC+00:00)

Cosmos 676 Rocket - Pass Details

Date: 14 July 2020
Orbit: 753 x 785 km, 74.0° (Epoch: 11 August)

Event Time Altitude Azimuth Distance (km) Brightness Sun altitude
Exits shadow 01:16:41 28° 182° (S) 1,408 4.9 -17.8°
Maximum altitude 01:19:25 67° 108° (ESE) 837 4.2 -17.6°
Drops below altitude 10° 01:24:40 10° 26° (NNE) 2,336 7.8 -17.1°
Sets 01:27:05 0° 24° (NNE) 3,272 9.0 -16.9°
